STARLINK-4726, 53802

Orbit data source: Space-Track

STARLINK-4726, 53802 is a payload satellite owned by SpaceX/Seattle (US) in LEO that was launched on Sun, 11 Sep 2022 UTC via an FALCON 9 launch vehicle from the Air Force Eastern Test Range (AFETR). Payload-class satellites include a variety of spacecraft equipped with specific instruments for various scientific and technological missions. These include communications satellites like Starlink; space stations such as the ISS; scientific satellites like the Hubble; Earth observation satellites from companies like Planet Labs, Umbra, and HawkEye 360; GPS; miniature CubeSats for education and research; and military/defense satellites.

Loading next visibility...
Identifier
53802, 2022-111AF
Orbit
LEO
Country
Flag of USUS
Related business
Manufacturer
SpaceX/Seattle
Mission
Operational Commercial Communications
Bus & Motor
STARLINK, Unknown motor
Mass
305 kg wet, ~290 kg dry
Launch date (UTC)
2022-09-11 (3 years ago)
Launch vehicle
FALCON 9
Launch site
Air Force Eastern Test Range (AFETR)
Object type
Payload
Rocket body
Debris
Shape & HBR
Box + 1 Pan, 10.1 m
Radar Cross Section
13.562 m², Large (>1 m²)

Expand to show TLE details & history
Last TLE update: 2 days ago

TLE from 2 days ago
0 STARLINK-4726
1 53802U 22111AF  25306.21311506  .00001558  00000-0  11592-3 0  9990
2 53802  53.2146 116.2508 0001412  99.9805 260.1346 15.08842827174573
Epoch: 2025-11-02T05:06Z
TLE epoch observation values (Epoch: 2025-11-02T05:06:53.141Z)
Latitude
-0.00005°
Longitude
-2.20273°
Altitude
540.799 km
Speed
7.593 km/s
True Right ascension
07h 45m 00s
True Declination
0° 00' 00"
Sunlit
Object was in daylight at epoch
Visualization orbit readout
Latitude
Unknown
Longitude
Unknown
Altitude
Unknown
Speed
Unknown
Apparent Right ascension
Unknown
Apparent Declination
Unknown
Sunlit
N/A
Visualization observer readout
Local Sidereal Time
15:02:57
Azimuth
Unknown
Elevation
Unknown
Doppler factor
Unknown
Orbital elements
Apogee altitude
540.957 km
Perigee altitude
539.003 km
Semi-major axis
6,918.117 km
Eccentricity
0.00014
Inclination
53.2146°
RAAN
116.2508°
Arg. of periapsis
99.9805°
True anomaly
260.11866°
Mean anomaly
260.1346°
Eccentric anomaly
260.12663°
Mean motion
3.77191 °/min
Orbital period
95.44 mins
BSTAR
0.00011592
Loading maneuver chart data...
Computing Atmospheric mass density...

Documentation

Showing up to 5 results
|